METEOSAT-11 (MSG-4) (40732 NORAD) Tracking and Keplerian Element Data

This shows tracking and keplerian element data for the satellite.

Feedback or suggestion? Click here.




ElementValue
Catalog40732
NameMETEOSAT-11 (MSG-4)
Epoch Orbit1225
Epoch Day318.51412861
Epoch Year2018
RAAN237.5267
Inclination1.1038
Eccentricity9.39E-05
Argument of Perigee62.3881
Mean Anonmoly298.3492
Mean Motion1.00269934
Decay Rate-4E-08
L11 40732U 15034A 18318.51412861 -.00000004 00000-0 00000-0 0 9993
L22 40732 1.1038 237.5267 0000939 62.3881 298.3492 1.00269934 12253

Live tracking and technical data element details for METEOSAT-11 (MSG-4) (NORAD 40732). METEOSAT-11 (MSG-4) can be tracked NOW for your location showing map with azimuth and elevation plus other details from your city location.

Track the satellite on the map from your city or location and see movement details for azimuth, elevation, latitude, longitude, range, height, and movement on the map or in text.







IsCatalogInMostPopularTable: catalog: 40732, numindb: 123
Update: records affected: 1



GetName: 40732 METEOSAT-11 (MSG-4)

Hit Count: updated at: Fri, 16 Nov 2018 11:21:06 GMT